Date String (YYYY-MM-DD hh:mm:ss) UTC,Instrument flags,absolute air pressure of the measurement (hPa),sample flow rate (lpm),inlet stack bypass flow (lpm),air temperature of the measurement (°C),ambient temperature measured by the external sensor (°C),aerosol sample conditioner tube jacket temperature (°C),OPC LED temperature (°C),internal box temperature (°C),relative humidity of the measurement (%),span deviation,mass concentration of particles derived from Lorenz-Mie calculation of OPC scattering (μg/m³),mass concentration of particles derived from Lorenz-Mie calculation of OPC scattering (μg/m³),mass concentration of particles derived from Lorenz-Mie calculation of OPC scattering (μg/m³)
DateTimeUTC,F1_M11,P_M11,Q1_M11,Q2_M11,T1_M11,T2_M11,T3_M11,T4_M11,T5_M11,U1_M11,ZSPAN_M11,X2_M11,X0_M11,X1_M11
2023-10-26 02:00:00,SystemResetWarning,0824.1,5.00,000.00,029.0,028.0,000.0,037.3,030.8,20.0,-003.0,0017.37,0034.16,0015.02
2023-10-26 02:01:00,SystemResetWarning,0824.2,5.00,000.00,029.0,028.0,000.0,037.3,030.8,19.8,-003.1,0017.37,0033.73,0015.00
2023-10-26 02:02:00,SystemResetWarning,0824.1,4.99,000.00,029.1,028.0,000.0,037.3,030.8,19.7,-003.0,0017.35,0033.30,0014.99
2023-10-26 02:03:00,SystemResetWarning,0824.2,4.99,000.00,029.1,027.9,000.0,037.3,030.9,19.6,-002.8,0017.38,0033.92,0014.96
2023-10-26 02:04:00,SystemResetWarning,0824.2,5.00,000.00,029.1,026.0,000.0,037.3,030.7,19.5,-002.4,0017.30,0034.59,0014.92
2023-10-26 02:05:00,SystemResetWarning,0824.2,5.00,000.00,028.9,024.6,000.0,037.3,030.5,19.5,-002.6,0017.35,0035.82,0014.90
2023-10-26 02:06:00,SystemResetWarning,0824.1,5.00,000.00,028.8,024.5,000.0,037.2,030.2,19.5,-002.4,0017.35,0034.95,0014.89
2023-10-26 02:07:00,SystemResetWarning,0824.1,5.02,000.00,028.7,024.8,000.0,037.2,030.1,19.6,-002.2,0017.33,0034.92,0014.88
2023-10-26 02:08:00,SystemResetWarning,0824.1,4.99,000.00,028.6,025.2,000.0,037.2,030.1,19.5,-002.2,0017.26,0034.33,0014.85
2023-10-26 02:09:00,SystemResetWarning,0824.1,4.99,000.00,028.6,025.6,000.0,037.2,030.1,19.5,-002.1,0017.23,0035.12,0014.82
2023-10-26 02:10:00,SystemResetWarning,0824.1,5.00,000.00,028.6,026.0,000.0,037.2,030.1,19.6,-002.4,0017.20,0034.62,0014.81
2023-10-26 02:11:00,SystemResetWarning,0824.2,5.01,000.00,028.6,026.3,000.0,037.2,030.2,19.7,-002.4,0017.13,0033.94,0014.81
2023-10-26 02:12:00,SystemResetWarning,0824.2,5.00,000.00,028.6,026.5,000.0,037.2,030.2,19.7,-002.4,0017.07,0033.35,0014.81
2023-10-26 02:13:00,SystemResetWarning,0824.2,5.00,000.00,028.6,026.7,000.0,037.1,030.2,19.6,-002.4,0017.08,0032.79,0014.81
2023-10-26 02:14:00,SystemResetWarning,0824.1,5.00,000.00,028.6,026.9,000.0,037.1,030.3,19.6,-002.5,0017.05,0033.08,0014.83
2023-10-26 02:15:00,SystemResetWarning,0824.1,5.00,000.00,028.6,027.0,000.0,037.1,030.3,19.5,-002.6,0017.07,0032.43,0014.86
2023-10-26 02:16:00,SystemResetWarning,0824.1,5.00,000.00,028.6,027.1,000.0,037.1,030.4,19.4,-002.7,0017.04,0030.58,0014.87
2023-10-26 02:17:00,SystemResetWarning,0824.2,4.99,000.00,028.7,027.2,000.0,037.1,030.4,19.2,-002.8,0017.03,0031.06,0014.88
2023-10-26 02:18:00,SystemResetWarning,0824.2,5.00,000.00,028.7,027.3,000.0,037.1,030.4,19.3,-002.6,0017.04,0031.42,0014.88
2023-10-26 02:19:00,SystemResetWarning,0824.2,4.99,000.00,028.7,027.4,000.0,037.1,030.4,19.4,-002.5,0017.10,0032.74,0014.89
2023-10-26 02:20:00,SystemResetWarning,0824.1,5.00,000.00,028.7,027.4,000.0,037.1,030.5,19.4,-002.4,0017.11,0032.88,0014.88
2023-10-26 02:21:00,SystemResetWarning,0824.2,5.00,000.00,028.7,027.5,000.0,037.1,030.5,19.5,-002.2,0017.13,0032.85,0014.84
2023-10-26 02:22:00,SystemResetWarning,0824.2,5.00,000.00,028.8,027.5,000.0,037.1,030.5,19.3,-002.1,0017.08,0032.76,0014.76
2023-10-26 02:23:00,SystemResetWarning,0824.2,5.00,000.00,028.8,027.6,000.0,037.2,030.5,19.1,-002.0,0017.07,0033.46,0014.68
2023-10-26 02:24:00,SystemResetWarning,0824.3,4.99,000.00,028.8,027.6,000.0,037.2,030.5,18.9,-001.9,0016.95,0033.55,0014.54
2023-10-26 02:25:00,SystemResetWarning,0824.3,5.00,000.00,028.8,027.7,000.0,037.2,030.6,18.6,-001.9,0016.74,0032.20,0014.37
2023-10-26 02:26:00,SystemResetWarning,0824.2,5.00,000.00,028.9,027.7,000.0,037.2,030.6,18.5,-001.8,0016.63,0032.51,0014.24
2023-10-26 02:27:00,SystemResetWarning,0824.3,5.00,000.00,028.9,027.7,000.0,037.2,030.6,18.0,-001.5,0016.58,0032.52,0014.12
2023-10-26 02:28:00,SystemResetWarning,0824.3,5.00,000.00,028.9,027.7,000.0,037.3,030.6,18.3,-001.4,0016.42,0031.57,0013.97
2023-10-26 02:29:00,SystemResetWarning,0824.3,4.99,000.00,028.9,027.8,000.0,037.3,030.7,18.5,-001.5,0016.30,0031.51,0013.81
2023-10-26 02:30:00,SystemResetWarning,0824.3,5.00,000.00,028.9,027.8,000.0,037.3,030.7,18.7,-001.5,0016.17,0030.08,0013.72
2023-10-26 02:31:00,SystemResetWarning,0824.3,5.00,000.00,029.0,027.8,000.0,037.3,030.7,18.5,-001.6,0016.21,0029.38,0013.73
2023-10-26 02:32:00,SystemResetWarning,0824.3,5.00,000.00,029.0,027.9,000.0,037.3,030.8,18.2,-001.7,0016.17,0029.43,0013.77
2023-10-26 02:33:00,SystemResetWarning,0824.3,5.00,000.00,029.0,027.9,000.0,037.3,030.8,18.5,-001.9,0016.13,0029.93,0013.73
2023-10-26 02:34:00,SystemResetWarning,0824.3,5.00,000.00,029.0,027.9,000.0,037.4,030.8,18.6,-001.9,0015.89,0029.87,0013.53
2023-10-26 02:35:00,SystemResetWarning,0824.3,5.00,000.00,029.0,027.9,000.0,037.4,030.8,18.6,-001.8,0015.53,0029.37,0013.22
2023-10-26 02:36:00,SystemResetWarning,0824.3,5.00,000.00,029.1,027.9,000.0,037.4,030.8,18.7,-001.7,0015.15,0029.62,0012.90
2023-10-26 02:37:00,SystemResetWarning,0824.3,5.00,000.00,029.1,027.9,000.0,037.4,030.8,18.7,-001.5,0014.71,0028.66,0012.49
2023-10-26 02:38:00,SystemResetWarning,0824.2,5.00,000.00,029.1,027.9,000.0,037.4,030.8,18.3,-001.6,0014.20,0027.91,0012.07
2023-10-26 02:39:00,SystemResetWarning,0824.2,4.99,000.00,029.1,027.4,000.0,037.4,030.8,18.5,-001.5,0013.73,0027.89,0011.64
2023-10-26 02:40:00,SystemResetWarning,0824.1,4.99,000.00,029.1,025.3,000.0,037.4,030.6,19.0,-001.6,0013.27,0027.76,0011.19
2023-10-26 02:41:00,SystemResetWarning,0824.2,5.01,000.00,029.0,024.4,000.0,037.3,030.4,19.7,-001.8,0012.80,0027.81,0010.69
2023-10-26 02:42:00,SystemResetWarning,0824.1,5.00,000.00,028.8,024.4,000.0,037.3,030.1,20.0,-001.8,0012.21,0026.36,0010.16
2023-10-26 02:43:00,SystemResetWarning,0824.0,5.00,000.00,028.7,024.8,000.0,037.3,030.0,20.3,-001.9,0011.71,0026.09,0009.68
2023-10-26 02:44:00,SystemResetWarning,0824.1,5.00,000.00,028.6,025.2,000.0,037.3,030.1,20.3,-001.7,0011.16,0024.57,0009.19
2023-10-26 02:45:00,SystemResetWarning,0824.1,5.00,000.00,028.6,025.6,000.0,037.2,030.1,20.4,-001.7,0010.74,0023.10,0008.83
2023-10-26 02:46:00,SystemResetWarning,0824.1,5.00,000.00,028.6,025.9,000.0,037.2,030.1,20.4,-001.7,0010.57,0022.61,0008.66
2023-10-26 02:47:00,SystemResetWarning,0824.1,5.00,000.00,028.6,026.2,000.0,037.2,030.2,20.7,-002.1,0010.49,0022.26,0008.56
2023-10-26 02:48:00,SystemResetWarning,0824.2,4.99,000.00,028.6,026.5,000.0,037.2,030.2,20.8,-002.2,0010.36,0022.13,0008.47
2023-10-26 02:49:00,SystemResetWarning,0824.2,5.00,000.00,028.6,026.7,000.0,037.2,030.2,20.8,-002.4,0010.27,0023.11,0008.42
2023-10-26 02:50:00,SystemResetWarning,0824.2,4.99,000.00,028.6,026.8,000.0,037.1,030.3,20.9,-002.5,0010.19,0024.07,0008.40
2023-10-26 02:51:00,SystemResetWarning,0824.1,4.99,000.00,028.6,027.0,000.0,037.1,030.3,20.8,-002.3,0010.13,0023.03,0008.40
2023-10-26 02:52:00,SystemResetWarning,0824.1,5.00,000.00,028.6,027.1,000.0,037.1,030.3,20.8,-001.7,0009.97,0022.52,0008.33
2023-10-26 02:53:00,SystemResetWarning,0824.2,5.00,000.00,028.6,027.2,000.0,037.1,030.3,20.8,-001.4,0009.86,0022.47,0008.24
2023-10-26 02:54:00,SystemResetWarning,0824.2,5.00,000.00,028.7,027.3,000.0,037.1,030.4,20.7,-001.0,0009.76,0021.90,0008.15
2023-10-26 02:55:00,SystemResetWarning,0824.2,5.00,000.00,028.7,027.3,000.0,037.1,030.4,20.7,-000.6,0009.70,0022.71,0008.08
2023-10-26 02:56:00,SystemResetWarning,0824.2,5.00,000.00,028.7,027.4,000.0,037.1,030.4,19.5,-000.6,0009.67,0022.61,0008.05
2023-10-26 02:57:00,SystemResetWarning,0824.2,5.00,000.00,028.7,027.4,000.0,037.1,030.4,18.4,-000.7,0009.58,0022.51,0008.00
2023-10-26 02:58:00,SystemResetWarning,0824.2,5.00,000.00,028.7,027.5,000.0,037.1,030.5,18.1,-000.6,0009.51,0022.17,0007.94
2023-10-26 02:59:00,SystemResetWarning,0824.1,5.00,000.00,028.7,027.5,000.0,037.1,030.5,18.1,-000.1,0009.47,0021.23,0007.90
